Theta_e
324 318 315 309 297 294 290 296 301 301 301 310 317 318 318 319 317 309 337 344 353 356 359 362 363 363 362 362 360 359 359 359 360 360 360 360 361 361 361 360 360 357 356 353 349 346 342 340 339
319 315 312 302 293 289 292 298 299 301 304 305 309 313 314 316 329 335 336 349 352 356 358 359 363 362 362 361 359 358 358 358 359 359 359 359 360 360 360 360 358 356 353 349 346 343 340 338 336
310 315 305 298 291 291 294 298 301 304 305 306 304 315 315 318 329 333 341 351 354 355 358 358 362 362 362 360 359 358 358 358 359 360 359 359 359 359 359 359 357 353 350 347 344 342 341 339 338
307 306 305 296 294 298 300 302 303 306 305 309 309 310 316 322 323 336 347 353 353 355 357 361 361 361 361 360 359 359 358 358 359 360 359 359 358 359 358 358 356 354 349 346 343 343 343 342 340
306 302 295 293 297 301 305 308 306 304 304 308 311 309 312 318 339 343 346 350 350 353 356 359 361 361 361 360 360 359 359 358 359 359 358 358 358 358 358 357 355 353 349 346 343 343 345 344 342
301 300 292 291 297 303 305 308 308 307 306 307 309 309 310 317 335 340 344 345 349 351 356 358 361 360 360 359 359 358 358 358 359 359 359 358 357 357 357 356 355 353 351 349 346 346 345 344 343
297 295 291 292 297 300 305 308 306 306 308 308 311 307 310 313 316 342 341 341 346 351 355 356 358 359 360 359 358 358 358 358 358 358 358 357 357 357 356 356 354 353 351 350 349 347 345 344 344
300 297 290 293 295 297 305 306 305 305 306 313 314 308 306 312 316 340 341 339 342 348 353 355 355 356 356 357 359 358 358 358 357 358 358 357 356 356 356 352 353 353 351 350 349 348 346 345 344
301 291 288 293 296 299 304 302 307 309 305 308 310 314 317 316 322 333 335 336 342 345 348 353 352 353 353 354 357 358 358 358 357 357 357 354 349 350 351 350 352 353 351 350 350 349 348 347 346
295 288 292 298 300 299 301 300 303 304 304 304 306 313 316 315 313 333 334 336 339 341 344 350 351 352 351 353 353 354 355 354 354 353 353 349 345 345 348 349 352 352 352 350 350 350 349 347 338
295 291 295 299 301 300 300 301 304 303 300 302 304 308 313 312 310 324 336 338 339 342 344 347 349 351 350 350 352 352 353 353 353 353 352 347 345 345 345 341 344 341 347 340 344 342 342 339 337
290 297 298 299 301 300 299 303 302 302 304 307 308 310 311 312 309 309 316 333 340 342 342 345 348 348 349 351 351 351 350 351 350 350 350 345 342 340 340 338 336 335 337 337 336 337 336 337 338
290 293 296 298 299 299 301 300 301 302 305 307 308 308 310 310 309 309 318 330 341 341 342 343 346 346 346 348 349 349 349 349 350 350 348 344 339 337 336 335 334 334 334 335 335 334 334 334 333
293 294 295 296 295 296 297 299 299 302 306 306 307 307 307 311 312 308 314 328 339 340 341 342 343 344 344 346 345 347 349 348 347 347 347 345 340 334 332 333 333 333 334 335 335 334 333 332 332
294 290 293 293 295 293 296 294 295 300 304 303 304 304 305 309 311 309 311 324 336 336 341 340 341 343 341 344 344 345 345 346 345 346 345 345 341 336 333 331 333 336 335 335 335 335 334 332 333
290 287 284 290 295 296 294 289 297 300 298 299 302 302 304 306 309 312 310 317 324 329 334 339 342 341 340 343 343 342 343 343 343 344 345 345 343 338 334 333 333 335 336 336 336 336 334 334 334
285 282 284 289 293 294 293 289 296 299 298 298 299 300 302 304 307 310 312 310 320 325 329 334 339 339 338 339 343 342 341 341 341 341 341 343 344 342 336 335 336 338 336 336 336 335 334 331 330
283 284 286 286 292 291 291 290 294 297 297 297 297 299 299 302 304 308 311 311 318 321 325 331 338 337 337 340 342 341 340 338 341 341 341 341 342 342 341 339 337 337 336 335 334 334 333 332 330
289 287 287 291 295 290 290 291 293 295 294 295 295 297 298 299 304 305 308 312 317 317 320 325 330 332 339 338 339 337 338 338 337 339 342 342 342 342 342 342 342 342 338 337 336 334 333 331 330
290 287 287 291 294 290 290 290 293 293 294 295 296 297 297 296 300 303 311 314 316 317 318 320 322 325 334 338 335 336 335 336 337 337 337 341 345 344 343 341 340 342 340 337 335 333 330 328 329
289 287 287 288 292 291 289 289 290 294 294 296 297 297 297 298 300 305 312 314 314 316 318 319 321 320 323 334 337 336 334 337 332 334 335 337 340 343 347 344 343 341 341 340 337 334 331 329 328
286 294 295 293 288 282 289 282 289 291 292 294 296 295 296 296 299 301 310 311 313 316 316 317 318 319 320 325 329 333 332 331 333 332 334 335 337 338 342 345 344 342 341 339 339 337 334 331 328
291 297 294 293 287 282 285 280 288 288 289 292 294 296 297 299 297 300 307 311 314 313 313 313 315 315 316 316 320 322 322 326 327 328 330 333 335 336 338 340 341 345 343 342 339 335 333 333 331
298 293 291 289 284 279 285 284 286 289 290 292 294 297 300 300 300 299 305 311 311 310 310 312 312 312 314 314 315 317 317 318 319 322 324 326 329 334 336 336 336 341 342 341 339 339 336 333 333
292 285 278 277 277 280 287 284 285 291 294 294 294 295 297 299 298 298 302 307 309 309 310 311 312 312 314 315 314 314 314 315 316 317 319 318 320 322 326 334 334 335 336 336 336 336 336 336 334
288 287 279 274 276 280 287 280 286 293 296 298 298 297 298 297 296 298 304 308 310 311 311 312 311 310 314 315 315 316 317 317 317 318 318 318 317 318 321 323 333 335 336 336 336 335 333 334 335
289 284 288 281 281 277 281 286 292 295 296 298 298 297 297 297 298 299 304 308 310 307 310 310 308 308 311 313 312 313 314 315 317 318 319 320 319 324 326 325 326 331 336 337 334 334 332 334 335
290 292 281 281 277 275 278 282 284 290 293 295 297 297 297 298 297 298 300 302 302 304 307 306 308 308 309 311 312 313 314 316 317 316 316 317 318 320 322 324 325 325 328 328 327 330 335 334 335
286 284 284 284 283 278 273 278 291 293 295 294 296 298 298 298 299 300 302 302 303 306 304 306 307 308 308 310 311 312 313 314 316 317 318 319 320 323 325 326 328 328 328 328 328 327 330 333 333
289 286 285 276 276 283 279 280 294 294 294 297 296 299 302 303 300 301 304 304 303 300 301 304 306 307 309 310 310 311 313 314 315 316 318 320 319 319 322 320 320 321 323 325 327 328 330 329 329
Wind_Speed
8 8 1 4 4 5 3 4 3 6 8 8 3 4 11 4 2 3 7 8 16 17 14 14 16 14 18 20 20 21 20 20 20 19 19 19 18 17 16 15 15 15 14 13 12 11 9 8 8
5 6 5 3 5 0 4 5 5 1 6 6 8 4 7 3 1 4 3 5 14 15 14 14 18 15 15 17 19 20 19 19 19 19 18 18 17 17 16 14 14 14 13 13 12 11 10 9 7
6 2 3 4 3 6 5 4 6 5 6 6 2 5 4 2 4 2 7 14 12 10 10 13 18 15 14 16 16 18 17 17 18 18 16 16 15 14 14 13 13 13 12 12 12 10 10 9 8
4 5 4 3 8 5 4 1 6 10 1 8 2 4 4 2 3 4 9 15 16 13 11 16 20 17 15 16 16 17 16 16 16 16 17 15 14 13 12 12 12 12 11 10 9 9 8 9 8
4 3 1 2 8 4 1 6 6 10 2 1 3 1 1 5 6 10 12 13 13 9 10 15 20 20 18 17 17 16 17 14 14 15 15 15 14 13 12 11 11 10 9 8 7 6 5 5 6
3 3 2 5 7 7 0 4 4 6 3 3 3 4 3 1 6 6 10 12 11 13 9 11 17 19 19 18 18 18 17 16 15 14 14 13 13 12 12 11 10 9 8 7 6 5 4 4 3
6 4 5 3 5 8 3 2 5 8 12 4 6 7 3 4 7 10 9 7 9 10 12 13 10 14 17 18 18 17 18 17 16 15 13 13 11 11 10 9 9 9 9 8 6 5 4 4 3
5 4 3 4 5 12 3 5 3 4 15 9 4 4 4 7 4 16 12 10 8 7 9 15 13 10 10 10 19 18 17 17 16 15 14 12 12 11 10 9 8 9 9 9 7 6 4 5 5
4 4 4 6 6 10 10 3 3 5 6 10 5 6 7 9 6 8 9 7 9 9 8 12 15 10 10 11 11 16 18 18 17 15 15 12 6 7 9 10 11 10 10 9 8 6 5 6 6
5 5 9 6 6 7 8 4 6 8 11 11 12 6 3 7 6 14 13 13 12 13 11 11 14 14 10 10 12 9 9 7 8 9 10 6 6 6 7 10 13 12 12 9 8 6 6 6 4
4 5 5 5 8 8 9 11 6 5 15 8 11 3 6 5 3 9 11 17 22 17 11 12 12 13 12 9 10 7 7 7 6 10 9 7 6 5 4 3 4 4 9 3 3 3 3 5 4
3 7 5 7 7 6 8 11 15 8 16 11 13 5 5 7 6 5 9 8 11 16 16 14 11 13 9 7 8 9 9 7 7 9 9 6 4 6 5 4 5 4 3 4 3 3 4 5 6
4 4 7 10 11 11 12 15 17 24 11 12 17 9 9 10 8 7 7 7 10 12 13 15 15 14 11 9 7 9 10 9 10 9 8 5 4 5 4 4 4 4 3 3 4 4 4 4 5
5 5 6 6 7 6 6 13 6 9 9 14 16 17 6 10 11 4 5 9 11 11 12 14 16 13 11 11 11 9 10 9 8 7 8 8 6 4 4 4 5 4 4 4 4 5 4 4 5
3 4 7 3 2 4 4 9 12 8 4 7 9 10 11 10 9 10 10 10 15 13 15 16 16 15 15 16 12 11 10 8 9 9 10 11 8 7 6 4 4 6 4 6 4 4 3 4 3
5 4 3 5 5 7 4 11 14 9 6 10 12 11 11 13 10 13 11 10 9 10 13 13 13 17 17 14 12 10 9 9 9 9 10 15 13 11 8 6 5 3 3 3 4 4 4 4 4
5 3 3 6 4 4 6 9 9 10 5 12 8 10 11 12 11 10 12 11 10 12 12 12 12 15 16 12 9 8 8 9 8 7 7 12 14 14 10 9 9 7 5 5 4 3 3 3 4
4 4 4 3 8 5 10 15 10 8 3 11 12 11 9 14 15 12 13 10 10 9 9 11 10 11 10 5 5 4 4 5 3 8 6 10 10 11 10 6 6 4 4 4 2 4 4 4 2
5 4 9 13 15 4 12 17 10 8 6 9 11 12 12 13 17 9 7 7 8 6 7 8 12 9 10 5 6 4 7 4 4 4 7 9 8 9 10 7 4 7 7 7 6 3 4 2 2
7 10 12 8 12 4 11 16 10 6 7 9 9 13 13 6 10 14 8 9 12 12 10 8 7 7 6 5 3 3 4 3 3 4 5 6 7 9 8 7 5 6 3 5 6 5 2 1 3
8 5 4 5 6 5 5 17 12 10 5 7 9 10 8 10 10 8 6 10 9 12 13 11 10 9 7 7 5 3 2 3 2 3 4 5 5 5 8 9 7 4 5 6 5 5 6 3 1
5 7 6 5 2 3 2 18 13 10 11 6 10 7 9 9 9 6 7 6 9 14 8 9 9 9 7 8 5 6 5 5 4 4 3 5 6 7 6 3 3 11 6 4 7 4 5 4 4
8 6 6 4 4 2 5 4 15 3 11 10 8 11 10 10 9 10 10 12 13 8 10 8 8 8 7 7 7 6 4 3 3 2 2 4 5 7 7 10 14 12 7 11 8 3 7 6 5
2 1 3 2 1 6 7 11 21 10 12 10 7 10 12 9 8 11 14 13 9 5 8 8 9 8 8 8 8 8 8 6 4 3 4 4 2 3 5 4 5 8 10 11 8 12 9 7 7
3 5 6 6 2 12 4 6 10 15 16 14 15 12 11 8 9 9 12 12 11 12 10 9 9 9 8 8 7 6 6 6 6 5 4 4 3 3 6 6 7 6 5 5 6 8 11 11 11
2 6 6 9 8 14 4 8 9 7 12 16 13 11 7 8 8 10 17 18 18 17 13 9 9 8 8 8 7 5 5 4 4 5 3 3 3 2 3 4 4 5 5 5 5 3 4 6 6
2 4 3 2 2 4 5 8 8 9 6 17 11 9 7 8 8 7 12 15 17 13 12 10 8 7 8 9 7 7 6 6 6 5 3 3 3 3 3 3 4 4 4 5 6 5 7 6 5
5 4 1 2 4 6 6 6 10 8 11 15 15 12 10 9 9 8 8 6 3 7 10 9 9 11 10 9 7 6 7 6 6 4 5 5 3 2 2 2 2 3 4 4 4 4 5 6 7
1 1 2 3 3 4 4 6 5 8 3 12 12 10 8 8 8 7 10 7 6 6 4 9 9 9 8 8 7 8 7 7 5 6 6 6 4 4 4 3 2 1 3 4 3 5 6 6 6
4 6 5 5 4 5 4 9 12 7 5 7 16 14 11 5 3 9 10 9 6 2 4 8 8 7 10 9 8 8 7 6 7 6 5 5 6 4 5 4 2 1 1 3 5 5 6 6 6
Wind_Direction
322 312 9 38 51 60 290 254 269 342 357 310 320 115 125 160 309 243 316 150 133 146 152 154 153 152 141 137 134 132 134 134 134 135 134 133 133 132 132 130 131 136 135 134 132 130 128 121 117
320 335 39 70 98 66 262 264 319 237 278 311 325 359 51 40 128 137 99 128 151 148 151 155 153 150 146 140 137 134 136 137 137 136 135 133 135 135 135 136 138 140 141 141 141 144 138 126 112
320 62 66 100 141 199 202 221 286 315 323 16 36 52 23 20 322 206 141 140 133 145 149 156 149 147 150 142 139 135 138 138 137 136 135 134 135 136 139 142 144 148 150 152 153 149 140 127 114
8 8 38 97 231 252 228 332 313 325 115 1 36 29 343 5 286 109 135 143 142 154 158 161 149 150 154 149 146 141 139 140 140 140 139 139 141 141 144 149 154 152 156 162 162 156 146 135 126
35 62 56 269 267 217 252 318 334 319 56 313 88 271 8 358 27 121 141 150 148 154 162 161 157 153 156 155 150 147 141 143 143 143 144 146 149 151 153 159 157 155 158 169 171 153 147 140 137
46 85 95 229 250 276 354 320 340 299 310 226 55 163 225 105 130 156 152 157 158 155 162 166 163 158 157 159 156 153 148 150 150 150 151 155 156 159 160 163 161 161 166 177 174 168 164 173 165
125 101 212 247 279 291 107 358 350 314 308 101 195 156 249 290 176 157 159 141 150 152 157 168 169 163 161 160 159 160 156 156 156 157 160 159 163 162 165 171 171 171 178 181 186 182 183 213 236
119 114 193 232 247 271 273 349 322 18 308 334 157 192 243 233 240 163 148 139 139 151 166 167 170 168 164 172 163 163 164 161 161 161 162 162 165 170 172 179 189 190 191 194 194 194 202 237 246
97 88 217 213 213 265 303 320 28 298 265 332 311 216 203 151 103 104 133 126 136 154 172 175 170 166 170 173 176 167 171 167 165 167 168 165 165 179 183 186 200 205 210 204 196 197 221 246 261
142 160 214 200 221 256 285 283 323 311 305 297 300 330 53 159 165 139 154 161 168 171 174 179 174 170 167 172 177 171 174 173 169 169 174 174 176 182 188 198 204 209 217 216 206 203 214 240 249
193 207 208 227 233 247 272 289 272 279 286 246 277 12 311 1 166 146 165 174 181 174 171 178 178 174 166 173 177 177 183 182 184 185 177 177 177 187 195 199 218 214 227 209 198 209 216 224 250
233 245 236 279 255 271 264 265 271 230 260 269 276 216 224 224 243 190 175 181 167 176 177 167 176 176 180 165 170 182 181 181 189 194 191 177 182 195 199 199 211 217 207 210 184 192 215 234 251
218 262 273 260 266 254 258 263 262 264 263 273 275 268 207 213 218 209 191 167 155 175 177 178 174 177 172 169 175 178 192 195 192 192 185 176 190 207 195 210 203 209 193 198 200 211 208 228 244
201 245 256 260 250 246 233 260 238 274 246 246 251 268 234 218 219 221 210 167 175 167 182 178 185 180 175 174 177 193 187 187 193 188 190 194 182 191 221 219 215 214 196 192 198 215 204 228 223
256 300 329 281 253 266 215 274 256 271 219 247 266 264 273 207 214 203 209 189 184 185 178 180 185 183 184 181 184 185 190 193 185 194 190 189 194 192 197 230 237 229 202 189 200 231 211 230 241
0 53 345 286 332 272 179 275 294 265 244 221 239 250 257 268 198 219 210 215 200 168 177 184 183 185 192 192 188 191 192 191 200 203 195 192 192 195 186 192 235 243 224 202 191 206 241 239 223
350 243 246 307 225 244 200 272 266 305 320 291 265 232 245 254 259 235 215 194 196 197 167 182 184 187 193 190 185 189 196 202 196 205 203 211 191 192 199 209 211 181 207 208 205 211 204 248 252
266 293 280 245 284 200 273 269 256 271 276 279 289 283 246 240 244 236 231 204 185 212 177 171 179 175 168 149 134 136 156 200 196 192 240 207 210 200 199 202 199 168 202 225 184 190 214 231 230
245 251 259 275 276 258 263 263 267 259 267 272 278 283 284 233 243 246 238 207 136 178 153 167 161 168 156 154 161 160 187 172 169 200 197 208 218 198 187 201 216 180 205 216 202 193 214 238 169
240 257 275 289 278 240 262 266 271 233 226 242 265 287 275 247 243 246 220 183 183 172 180 174 169 160 162 148 143 141 140 174 154 161 205 208 202 206 181 176 168 233 201 210 192 186 201 197 199
253 231 238 239 289 306 299 286 301 290 233 258 268 258 279 263 253 224 217 207 175 174 176 179 171 160 158 147 123 91 63 54 128 225 202 197 201 208 238 172 145 208 208 238 212 194 184 201 201
247 195 205 244 52 247 144 288 275 279 277 232 270 282 280 288 287 278 257 210 211 194 168 157 159 154 151 151 144 159 175 165 186 183 192 200 209 233 217 290 183 181 170 210 239 203 181 160 209
235 185 223 215 227 201 200 270 270 285 286 274 260 269 250 246 215 242 233 231 216 165 174 169 151 151 148 150 153 148 155 181 175 168 233 232 204 202 228 210 214 222 187 198 201 212 222 195 173
76 246 276 329 155 253 240 220 276 257 254 271 228 245 256 261 251 225 226 221 207 182 160 163 155 159 156 159 160 165 171 186 180 195 205 206 215 250 226 243 273 224 197 210 192 195 211 210 214
90 56 321 310 297 269 348 297 269 277 272 264 270 260 260 261 268 236 210 197 184 178 182 165 167 161 160 154 154 168 189 193 205 199 191 181 192 177 217 196 204 229 252 284 266 230 218 211 210
83 150 174 257 264 280 4 256 263 297 298 281 272 258 263 289 280 240 210 192 183 181 174 170 170 151 161 163 179 179 190 198 203 196 200 221 178 236 300 297 287 259 237 231 218 239 261 271 246
166 194 218 272 17 300 227 280 296 269 338 360 345 352 335 322 323 286 216 192 172 166 170 173 171 160 169 179 175 186 195 200 213 221 180 196 188 190 207 236 248 253 234 221 212 222 225 233 238
146 161 44 356 288 267 279 269 259 315 343 334 323 326 338 347 16 23 28 39 12 170 174 171 176 179 186 188 177 178 195 213 205 173 206 208 221 192 203 254 268 290 285 279 260 254 238 220 224
31 297 86 153 177 270 302 261 235 242 313 307 301 316 315 3 353 70 38 36 39 310 230 188 191 184 188 188 178 180 200 207 201 200 207 196 177 171 163 162 153 240 291 299 266 256 259 243 242
163 196 155 127 267 242 249 263 265 296 322 327 304 296 289 259 336 27 22 8 19 280 285 263 207 195 200 195 177 192 202 186 179 197 200 179 159 149 144 146 135 174 253 279 285 281 285 283 298